New Rooks County (RCP)
Stockton, KS
Field Elevation: 1999
Lat: 39°20.80N  Long: 99°18.28W
CTAF/Unicom Freq: 122.9000
   
    
Weather Advisories
1/29/2015 00:12 Z
Altimeter 29.86" Hg
Wind 290° @ 10 KT
Gusts --
Visibility 10 SM
Temperature 17° C (63° F)
Dewpoint 0° C (32° F)
Relative Humidity 32%
Density Altitude --
Condensation Altitude 10,600 feet
  Wind and Runways
Indicated Runway = 36
History
 
 
More Info
All DigiWx sites map
NOAA Forecast
 
Airport IQ 5010
(FLV) Sherman Airfield
(K68) Garnett Municipal Airport
 
about DigiWx
 
FAA Disclaimer: The data displayed is for advisory purposes only and is not to be used for flight planning or operations. For official data, please call (not available) to hear the current automated AWOS voice message.
  METAR RCP 290012Z AUTO 29010KT 10SM 17/00 A2986